[[{"header":{"parameterUnit":"m.s-1","parameterCategory":1,"la1":30.2991,"la2":30.254,"lo1":-89.0895,"lo2":-89.0444,"dy":0.0017,"dx":0.0017,"nx":28,"ny":28,"refTime":"2025-07-28T21:00:00:Z","depth":0,"parameterNumber":2,"parameterNumberName":"U-component_of_WINDS"},"data":[0,0,0,0,0,0,0,0,0,0,0,0,0,0,0,0,0,0,0,0,0,0,0,0,0,0,0,0,0,0,0,0,0,0,0,0,0,0,0,0,0,0,0,0,0,0,0,0,0,0,0,0,0,0,0,0,0,0,2.2895,2.2893,0,2.2732,2.2731,2.2729,2.2551,2.2548,2.2546,2.2543,2.2373,2.2371,2.2369,0,0,0,0,0,0,0,0,0,0,0,0,0,2.305,2.3049,2.2895,2.2893,2.2891,2.2733,2.2731,2.2728,2.2551,2.2548,2.2545,2.2542,2.2374,2.2372,2.2369,0,0,0,0,0,0,0,0,0,0,0,0,0,2.2945,2.3048,2.2896,2.2784,2.2772,2.2733,2.273,2.2728,2.2552,2.2548,2.2544,2.2541,2.2375,2.2372,2.2369,2.2426,0,0,2.2359,2.2358,0,0,0,0,0,0,0,0,2.2951,2.2939,2.2802,2.2792,2.2778,2.2658,2.2723,2.2626,2.2553,2.2635,2.2543,2.2539,2.2471,2.246,2.2437,2.2418,2.241,2.2359,2.2357,2.2355,2.2354,0,0,0,0,0,0,0,2.2959,2.2945,2.2831,2.2801,2.2786,2.2741,2.2722,2.2704,2.2577,2.2628,2.2615,2.2598,2.2464,2.2441,2.2432,2.2408,2.2359,2.2356,2.2354,2.2353,2.2427,2.243,0,0,0,0,0,0,2.2983,2.2953,2.2836,2.2826,2.2857,2.2741,2.272,2.2701,2.2576,2.2554,2.2601,2.259,2.2448,2.2436,2.2426,2.2483,2.2355,2.2352,2.235,2.2423,2.2427,2.2432,0,0,0,0,0,0,2.2987,2.2975,2.2842,2.2886,2.2865,2.2743,2.2723,2.2699,2.2676,2.2556,2.2533,2.2602,2.2445,2.243,2.2427,2.2475,2.2351,2.2348,2.2418,2.2424,2.2429,2.2601,0,0,0,0,0,0,2.2993,2.2977,2.2998,2.2888,2.2864,2.2848,2.2725,2.2699,2.2672,2.2656,2.255,2.2529,2.2441,2.2433,2.2424,2.2468,2.2345,2.2413,2.2421,2.2428,2.259,2.2612,2.263,0,0,0,0,0,2.2999,2.3052,2.3,2.2987,2.2888,2.2851,2.2837,2.2735,2.2676,2.2696,2.2619,2.2532,2.2472,2.2434,2.2423,2.2467,2.241,2.2419,2.2427,2.2581,2.2608,2.263,0,0,0,0,0,0,2.317,2.3035,2.2976,2.2995,2.2937,2.2821,2.2842,2.2767,2.2722,2.2709,2.2583,2.2561,2.2573,2.2519,2.248,2.2515,2.2428,2.2435,2.255,2.2573,2.2593,2.2605,2.2343,0,0,0,0,0,2.321,2.3193,2.3076,2.3104,2.3078,2.2966,2.2946,2.2873,2.2806,2.278,2.2702,2.264,2.2607,2.2587,2.255,2.2582,2.2556,2.2607,2.2627,2.2644,2.2651,2.2664,2.2685,2.246,2.246,2.246,0,0,2.3292,2.3217,2.3213,2.3137,2.3082,2.3066,2.2946,2.2934,2.292,2.2777,2.277,2.2712,2.2634,2.2649,2.2652,2.2605,2.2708,2.2655,2.267,2.2667,2.2675,2.2696,2.2715,2.2466,2.2465,2.2464,0,0,2.3434,2.3376,2.3393,2.3341,2.3261,2.3186,2.3191,2.3088,2.3044,2.3035,2.2927,2.291,2.2855,2.2804,2.2771,2.2896,2.2814,2.2887,2.299,2.3004,2.3022,2.3037,2.308,2.3098,2.2895,2.2895,2.2895,0,2.3546,2.3519,2.3411,2.3406,2.3375,2.3247,2.3263,2.3218,2.3129,2.3111,2.306,2.2989,2.2928,2.2929,2.296,2.2938,2.2938,2.2897,2.3028,2.3042,2.3055,2.3095,2.3112,2.2904,2.2903,2.2902,2.2901,0,2.366,2.3643,2.3666,2.3585,2.3557,2.3563,2.3456,2.344,2.3371,2.3302,2.3294,2.3216,2.3161,2.3156,2.3087,2.3148,2.3121,2.3052,2.2961,2.3087,2.3123,2.3137,2.2918,2.2914,2.2911,2.2909,0,0,2.3903,2.3764,2.3774,2.3736,2.3639,2.3623,2.3623,2.357,2.3559,2.3503,2.3499,2.3457,2.3392,2.3355,2.3279,2.3292,2.3395,2.322,2.3216,2.3254,2.3456,2.3508,2.3528,2.3341,2.3344,2.3346,2.3462,0,2.4026,2.4019,2.3923,2.3943,2.3925,2.3804,2.3804,2.3744,2.368,2.3655,2.3584,2.3556,2.3473,2.3449,2.3457,2.3381,2.3433,2.3371,2.3335,2.3335,2.3357,2.3546,2.3601,2.3714,2.3475,2.3477,2.3479,0,2.4168,2.4122,2.4141,2.4044,2.4033,2.4035,2.3979,2.3957,2.3887,2.3839,2.38,2.3714,2.3707,2.3624,2.3611,2.3571,2.355,2.3511,2.3513,2.3504,2.3414,2.3541,2.3748,2.3765,2.35,2.3498,2.3497,0,2.4343,2.4285,2.4288,2.426,2.4147,2.4151,2.4104,2.403,2.4005,2.3956,2.3938,2.389,2.3862,2.3826,2.373,2.3678,2.3728,2.3637,2.3687,2.369,2.3701,2.3701,2.3906,2.3692,2.3691,2.3691,2.3691,0,2.4489,2.4505,2.4365,2.4368,2.4382,2.4271,2.4288,2.4229,2.4165,2.4153,2.4045,2.4036,2.3911,2.3887,2.3812,2.3812,2.3801,2.3762,2.3741,2.377,2.3775,2.3754,2.3743,2.3695,2.3694,2.3694,2.3693,0,2.4685,2.4592,2.4588,2.4483,2.4456,2.4472,2.438,2.4377,2.4308,2.4294,2.4284,2.4175,2.4142,2.4043,2.3984,2.3934,2.3956,2.3918,2.398,2.3966,2.4022,2.4018,2.4219,2.4239,2.4014,2.4016,2.4018,0,2.4784,2.4794,2.469,2.4675,2.4633,2.461,2.4584,2.4476,2.4453,2.4375,2.4382,2.434,2.4301,2.4254,2.4168,2.4123,2.4082,2.4156,2.4074,2.4104,2.4081,2.4082,2.4081,2.4173,2.4176,2.4179,2.4181,0,2.4969,2.4924,2.4891,2.4843,2.4816,2.4772,2.4722,2.4716,2.4595,2.4575,2.4541,2.4511,2.4452,2.4412,2.4353,2.4303,2.4222,2.4208,2.4216,2.4245,2.428,2.4261,2.4027,2.4203,2.42,2.4199,2.4198,2.4197,2.5118,2.5121,2.5049,2.5016,2.4968,2.4925,2.4917,2.4847,2.4817,2.4761,2.47,2.4672,2.4602,2.4515,2.4471,2.4448,2.4404,2.4417,2.442,2.4425,2.4438,2.4286,2.4437,2.4436,2.4435,2.4435,2.4434,0,2.5297,2.5245,2.5217,2.5151,2.5126,2.5054,2.4995,2.4978,2.4956,2.4898,2.4862,2.4823,2.4784,2.4696,2.4649,2.4646,2.4608,2.4637,2.4635,2.4625,2.448,2.4477,2.4669,2.4669,2.4669,2.4669,2.4669,2.4669,2.5387,2.5388,2.5334,2.531,2.5257,2.523,2.5203,2.5162,2.5115,2.5076,2.5044,2.4988,2.4917,2.4864,2.4825,2.48,2.4787,2.4829,2.4792,2.4658,2.4635,2.4614,2.461,2.4827,2.4827,2.4938,2.4939,2.494]},{"header":{"parameterUnit":"m.s-1","parameterCategory":1,"la1":30.2991,"la2":30.254,"lo1":-89.0895,"lo2":-89.0444,"dy":0.0017,"dx":0.0017,"nx":28,"ny":28,"refTime":"2025-07-28T21:00:00:Z","depth":0,"parameterNumber":3,"parameterNumberName":"V-component_of_WINDS"},"data":[0,0,0,0,0,0,0,0,0,0,0,0,0,0,0,0,0,0,0,0,0,0,0,0,0,0,0,0,0,0,0,0,0,0,0,0,0,0,0,0,0,0,0,0,0,0,0,0,0,0,0,0,0,0,0,0,0,0,0.595,0.5951,0,0.6021,0.6022,0.6023,0.6059,0.6059,0.6059,0.6059,0.6128,0.613,0.6131,0,0,0,0,0,0,0,0,0,0,0,0,0,0.5843,0.5844,0.595,0.5951,0.5952,0.6021,0.6022,0.6023,0.6059,0.6059,0.6059,0.6059,0.6127,0.6129,0.6132,0,0,0,0,0,0,0,0,0,0,0,0,0,0.5899,0.5845,0.595,0.5978,0.5982,0.6021,0.6022,0.6023,0.6059,0.6059,0.6059,0.6059,0.6127,0.6129,0.6132,0.6147,0,0,0.614,0.6141,0,0,0,0,0,0,0,0,0.5896,0.5903,0.5973,0.5976,0.598,0.6031,0.6009,0.6065,0.6059,0.6029,0.6059,0.6059,0.6095,0.6101,0.6114,0.615,0.6153,0.614,0.6142,0.6143,0.6144,0,0,0,0,0,0,0,0.5892,0.59,0.5978,0.5974,0.5978,0.5986,0.5994,0.602,0.6061,0.6032,0.6035,0.6043,0.6097,0.6111,0.6116,0.6154,0.614,0.6143,0.6144,0.6145,0.6207,0.6207,0,0,0,0,0,0,0.5884,0.5896,0.5976,0.598,0.5937,0.5988,0.5997,0.6015,0.6061,0.6068,0.6043,0.6044,0.6106,0.6112,0.6118,0.614,0.6143,0.6146,0.6147,0.6207,0.6207,0.6207,0,0,0,0,0,0,0.5881,0.589,0.5973,0.5939,0.595,0.599,0.6009,0.6016,0.603,0.6069,0.6076,0.6049,0.6107,0.6114,0.614,0.6142,0.6147,0.6149,0.6207,0.6207,0.6207,0.6182,0,0,0,0,0,0,0.5878,0.5889,0.5896,0.5939,0.5952,0.5995,0.6009,0.6017,0.6035,0.6038,0.6077,0.6084,0.6107,0.6136,0.6143,0.6146,0.6151,0.6207,0.6207,0.6207,0.6183,0.6181,0.618,0,0,0,0,0,0.5874,0.5885,0.5896,0.5906,0.5962,0.5995,0.6002,0.603,0.6035,0.6042,0.6067,0.6083,0.6141,0.6138,0.6146,0.615,0.6207,0.6207,0.6207,0.6183,0.6181,0.618,0,0,0,0,0,0,0.584,0.5891,0.5904,0.593,0.5958,0.6001,0.601,0.6027,0.6053,0.6054,0.6086,0.6095,0.6117,0.6136,0.6132,0.6168,0.6176,0.6177,0.6155,0.6153,0.6151,0.6146,0.6154,0,0,0,0,0,0.5836,0.586,0.5903,0.5921,0.5935,0.597,0.5985,0.6005,0.6034,0.6046,0.6073,0.61,0.6124,0.614,0.6164,0.6185,0.6194,0.6192,0.6191,0.6189,0.619,0.6203,0.6203,0.6207,0.6207,0.6207,0,0,0.5827,0.5858,0.5871,0.5915,0.5939,0.5962,0.598,0.6003,0.602,0.6049,0.6075,0.6096,0.6128,0.6152,0.6163,0.6168,0.6191,0.6189,0.6188,0.619,0.6203,0.6202,0.6202,0.6208,0.6208,0.6208,0,0,0.5823,0.5849,0.5867,0.5891,0.5928,0.5951,0.5955,0.5996,0.6011,0.6039,0.6061,0.6081,0.6122,0.6145,0.6161,0.6166,0.6181,0.6173,0.6165,0.6177,0.6176,0.6176,0.6178,0.6178,0.6174,0.6174,0.6174,0,0.5807,0.5844,0.5874,0.5897,0.5916,0.5944,0.5963,0.5984,0.6026,0.6038,0.6043,0.6096,0.612,0.6149,0.615,0.6163,0.6168,0.6168,0.6174,0.6174,0.6174,0.6176,0.6177,0.6172,0.6173,0.6173,0.6173,0,0.5822,0.5847,0.5857,0.5899,0.5919,0.5939,0.5972,0.5988,0.6006,0.6028,0.6055,0.6085,0.6116,0.6125,0.6141,0.6156,0.6158,0.6168,0.6177,0.6172,0.6175,0.6176,0.6171,0.6171,0.6171,0.6172,0,0,0.5798,0.5857,0.586,0.588,0.5922,0.5942,0.5963,0.5995,0.6008,0.6036,0.6054,0.6089,0.6099,0.6118,0.6137,0.6148,0.6149,0.6157,0.6158,0.6154,0.6167,0.616,0.616,0.616,0.616,0.616,0.6165,0,0.58,0.5841,0.587,0.5899,0.5922,0.595,0.5969,0.5996,0.6018,0.604,0.6063,0.6087,0.6099,0.611,0.6122,0.6147,0.6152,0.6147,0.6176,0.6177,0.6167,0.6161,0.6153,0.6156,0.6166,0.6166,0.6166,0,0.5807,0.5836,0.5868,0.5909,0.5919,0.5936,0.5968,0.5989,0.602,0.6035,0.6056,0.6077,0.6099,0.6106,0.6137,0.6133,0.6146,0.616,0.6161,0.6165,0.6171,0.6165,0.6157,0.6158,0.6168,0.6168,0.6168,0,0.5786,0.5833,0.5858,0.5874,0.5922,0.5933,0.5953,0.5985,0.6002,0.603,0.6041,0.607,0.6086,0.6107,0.6134,0.6137,0.6163,0.6171,0.6175,0.6174,0.6179,0.6178,0.6174,0.6188,0.6188,0.6188,0.6188,0,0.5785,0.5804,0.585,0.5866,0.5887,0.5919,0.5939,0.5962,0.599,0.6009,0.6035,0.6052,0.6087,0.6109,0.613,0.6152,0.6159,0.6171,0.6176,0.6169,0.6167,0.6178,0.6179,0.6188,0.6188,0.6188,0.6188,0,0.5765,0.5797,0.5827,0.587,0.5882,0.5896,0.5932,0.5948,0.5971,0.5996,0.6003,0.604,0.6066,0.6096,0.6132,0.6146,0.6167,0.6175,0.6157,0.616,0.6162,0.6161,0.6164,0.6166,0.6179,0.6178,0.6178,0,0.5762,0.5778,0.5823,0.5839,0.5859,0.5884,0.5903,0.5935,0.5953,0.599,0.6001,0.603,0.6055,0.6096,0.6125,0.6153,0.6161,0.616,0.6165,0.6157,0.6161,0.616,0.6161,0.6158,0.6158,0.6158,0.6158,0,0.5754,0.5769,0.5796,0.5828,0.585,0.5876,0.5903,0.5914,0.5952,0.5971,0.5999,0.6019,0.6056,0.6084,0.6116,0.6135,0.6152,0.6156,0.6158,0.6151,0.614,0.6146,0.6153,0.6156,0.6156,0.6156,0.6156,0.6156,0.5743,0.5758,0.5792,0.5821,0.5845,0.587,0.5888,0.5914,0.5939,0.5973,0.599,0.6018,0.6049,0.6094,0.6113,0.6134,0.614,0.6143,0.6144,0.6144,0.6142,0.6137,0.614,0.614,0.614,0.614,0.614,0,0.5735,0.5759,0.5785,0.5824,0.5846,0.5862,0.5893,0.591,0.5936,0.5964,0.5988,0.6021,0.6049,0.608,0.6109,0.6121,0.6129,0.6127,0.6126,0.6131,0.6136,0.6131,0.612,0.612,0.612,0.612,0.612,0.612,0.5734,0.576,0.578,0.5818,0.5842,0.5871,0.5888,0.5911,0.5934,0.5969,0.5993,0.6014,0.6043,0.6075,0.6101,0.6109,0.6118,0.6114,0.6125,0.6129,0.613,0.6132,0.6127,0.6116,0.6116,0.6118,0.6118,0.6118]}]]